Flag for Germany Weather past 2 weeks in Nuremberg, Bavaria, Germany

Now
32 °F

Clear.


Feels Like: 26 °F
Forecast: 34 / 44 °F
Wind: 7 mph from Southeast

Location: Nuernberg

Current Time: Mar 1, 2015 at 5:48:09 AM

Latest Report: Mar 1, 2015 at 5:20 AM


Visibility: 10 mi

Pressure: 29.86 "Hg

Humidity: 93%

Dew point: 30 °F

Location of NurembergLocation

Historic Weather in Nuremberg — Graph

°F

Nuremberg temperature yesterday

Maximum temperature yesterday: 43 °F (at 1:20 PM)
Minimum temperature yesterday: 28 °F (at 10:50 PM)
Average temperature yesterday: 37 °F

Past Weeks' High & Low Weather Summary

 TemperatureHumidityPressure
High52 °F (Feb 20, 2:20 PM)100% (Feb 14, 10:20 PM)30.72 "Hg (Feb 14, 10:20 PM)
Low21 °F (Feb 20, 6:20 AM)46% (Feb 26, 1:20 PM)29.47 "Hg (Feb 21, 1:20 PM)
Average34 °F86%30.02 "Hg
* Reported Feb 14 4:20 AM — Mar 1 4:20 AM, Nuremberg, Weather by CustomWeather, © 2015

Note: Actual official high and low records may vary slightly from our data, if they occured in-between our weather recording intervals... More about our weather records

Advertising

Nuremberg weather history for previous 24 hours

 ConditionsComfort  
Time TempWeatherWind HumidityBarometerVisibility
4:20 AM
Sun, Mar 1
32 °FPassing clouds.6 mph87%29.89 "HgN/A
3:50 AM30 °FPassing clouds.5 mph93%29.89 "HgN/A
3:20 AM30 °FPassing clouds.5 mph86%29.92 "HgN/A
2:50 AM28 °FClear.5 mph93%29.92 "Hg10 mi
2:20 AM28 °FClear.5 mph93%29.95 "Hg10 mi
1:50 AM28 °FClear.5 mph93%29.95 "Hg10 mi
1:20 AM28 °FClear.3 mph93%29.98 "Hg10 mi
12:50 AM28 °FClear.6 mph93%29.98 "Hg10 mi
12:20 AM30 °FClear.6 mph86%29.98 "Hg10 mi
11:50 PM
Sat, Feb 28
30 °FClear.2 mph86%30.01 "Hg10 mi
11:20 PM30 °FClear.5 mph86%30.01 "Hg10 mi
10:50 PM28 °FClear.6 mph86%30.01 "Hg10 mi
10:20 PM32 °FClear.5 mph80%30.04 "Hg10 mi
9:50 PM32 °FClear.3 mph80%30.04 "Hg10 mi
9:20 PM30 °FClear.3 mph86%30.04 "Hg10 mi
8:50 PM34 °FClear.5 mph81%30.04 "Hg10 mi
8:20 PM34 °FPassing clouds.6 mph81%30.07 "HgN/A
7:50 PM34 °FClear.6 mph81%30.07 "Hg10 mi
7:20 PM36 °FPassing clouds.7 mph81%30.07 "HgN/A
6:50 PM37 °FClear.6 mph75%30.07 "Hg10 mi
6:20 PM37 °FPassing clouds.5 mph70%30.07 "HgN/A
5:50 PM39 °FScattered clouds.3 mph65%30.07 "HgN/A
5:20 PM41 °FScattered clouds.3 mph61%30.07 "HgN/A
4:50 PM43 °FPartly sunny.5 mph57%30.07 "HgN/A
4:20 PM43 °FSunny.2 mph57%30.07 "Hg10 mi
3:50 PM43 °FSunny.3 mph57%30.09 "Hg10 mi
3:20 PM43 °FPartly sunny.3 mph57%30.09 "HgN/A
2:50 PM43 °FPartly sunny.3 mph57%30.09 "HgN/A
2:20 PM41 °FPartly sunny.2 mph57%30.09 "HgN/A
1:50 PM41 °FScattered clouds.6 mph61%30.09 "HgN/A
1:20 PM43 °FScattered clouds.7 mph61%30.12 "HgN/A
12:50 PM41 °FScattered clouds.6 mph66%30.12 "HgN/A
12:20 PM41 °FScattered clouds.5 mph70%30.15 "HgN/A
11:50 AM39 °FScattered clouds.3 mph81%30.15 "HgN/A
11:20 AM37 °FScattered clouds.5 mph87%30.15 "HgN/A
10:50 AM37 °FPartly sunny.2 mph87%30.15 "HgN/A
10:20 AM36 °FPartly sunny.1 mph93%30.15 "HgN/A
9:50 AM36 °FBroken clouds.1 mph93%30.15 "HgN/A
9:20 AM36 °FBroken clouds.2 mph93%30.15 "HgN/A
8:50 AM36 °FBroken clouds.2 mph93%30.15 "Hg4 mi
8:20 AM36 °FPartly sunny.3 mph93%30.15 "Hg4 mi
7:50 AM36 °FDrizzle. Broken clouds.5 mph93%30.15 "Hg3 mi
7:20 AM36 °FLight rain. Broken clouds.3 mph93%30.12 "Hg6 mi
6:50 AM36 °FPassing clouds.6 mph93%30.12 "Hg6 mi
6:20 AM36 °FPassing clouds.5 mph93%30.12 "Hg5 mi
5:50 AM36 °FLow clouds.3 mph93%30.09 "Hg5 mi
5:20 AM36 °FLight rain. Low clouds.5 mph93%30.09 "Hg5 mi
Weather by CustomWeather, © 2015

See weather overviewHow to use our weather pages